This is the latest recevied weather packets stored in our database for station/object K6JWN. If no packets are shown the sender has not sent any weather packets the latest 10 day(s).
| Time | Temp. | Humidity | Pressure | Rain* | Wind** | Luminosity | Snow |
|---|---|---|---|---|---|---|---|
| 1777582337 | 25.56° C | 37% | 1011.9 hPa | 0 mm | - | - | - |
| 1777581737 | 26.11° C | 34% | 1012 hPa | 0 mm | - | - | - |
| 1777581137 | 25.56° C | 37% | 1012 hPa | 0 mm | - | - | - |
| 1777580537 | 25° C | 35% | 1012.1 hPa | 0 mm | - | - | - |
| 1777579936 | 25.56° C | 37% | 1012.3 hPa | 0 mm | - | - | - |
| 1777579337 | 25° C | 38% | 1012.4 hPa | 0 mm | - | - | - |
| 1777578737 | 25° C | 37% | 1012.6 hPa | 0 mm | - | - | - |
| 1777578137 | 23.89° C | 38% | 1012.8 hPa | 0 mm | - | - | - |
| 1777577537 | 23.89° C | 41% | 1012.8 hPa | 0 mm | - | - | - |
| 1777576937 | 23.89° C | 39% | 1012.8 hPa | 0 mm | - | - | - |
| 1777576336 | 23.33° C | 41% | 1012.9 hPa | 0 mm | - | - | - |
| 1777575736 | 22.78° C | 44% | 1013.1 hPa | 0 mm | - | - | - |
| 1777575137 | 22.78° C | 45% | 1013.1 hPa | 0 mm | - | - | - |
| 1777574537 | 22.22° C | 47% | 1013.1 hPa | 0 mm | - | - | - |
| 1777573937 | 21.67° C | 49% | 1013.2 hPa | 0 mm | - | - | - |
| 1777573337 | 21.11° C | 48% | 1013.4 hPa | 0 mm | - | - | - |
| 1777572736 | 20.56° C | 48% | 1013.5 hPa | 0 mm | - | - | - |
| 1777572137 | 20° C | 46% | 1013.5 hPa | 0 mm | - | - | - |
| 1777571537 | 20° C | 48% | 1013.4 hPa | 0 mm | - | - | - |
| 1777570936 | 20° C | 50% | 1013.6 hPa | 0 mm | - | - | - |
| 1777570337 | 19.44° C | 50% | 1013.7 hPa | 0 mm | - | - | - |
| 1777569737 | 18.89° C | 49% | 1013.7 hPa | 0 mm | - | - | - |
| 1777569137 | 18.33° C | 51% | 1013.6 hPa | 0 mm | - | - | - |
| 1777568537 | 18.89° C | 51% | 1013.7 hPa | 0 mm | - | - | - |
| 1777567936 | 18.33° C | 52% | 1013.6 hPa | 0 mm | - | - | - |
* Rain latest hour (hover to see other rain measurements)
** Current wind speed in m/s (hover to see current wind gust speed)